Station Historical Data
Daily Summary for September 8, 2017 Units:  Metric    English   Both
« Previous Day
Next Day »
Daily Weekly Monthly Yearly Custom
  High: Low: Average:
Temperature: 26.8 °C 11.2 °C 18.1 °C
Dew Point: 14.3 °C 9.8 °C 12.2 °C
Humidity: 92% 40% 72%
Wind Speed: 1.6km/h 0km/h 0km/h
Wind Gust: 4.8km/h - -
Wind- - WSW
Pressure: 1022.9 hPa 1020.5 hPa -
Precipitation: 0 mm    
Historical Graphs
 
 
Tabular Data for September 8, 2017
Time Temperature Dew Point Pressure Wind Wind Speed Wind Gust Humidity Rainfall Rate (Hourly) solar Conditions
00:00 14.8 °C 11.9 °C 1021.2 hPa Calm     83% 0 mm WeatherDisplay:10.37 W/m2 CLR
00:05 14.8 °C 12.1 °C 1021.2 hPa Calm     84% 0 mm WeatherDisplay:10.37 W/m2 CLR
00:10 14.8 °C 12.2 °C 1021.2 hPa Calm     84% 0 mm WeatherDisplay:10.37 W/m2 CLR
00:15 14.8 °C 11.9 °C 1021.2 hPa Calm     83% 0 mm WeatherDisplay:10.37 W/m2 CLR
00:20 14.7 °C 11.9 °C 1021.2 hPa Calm     83% 0 mm WeatherDisplay:10.37 W/m2 CLR
00:25 14.7 °C 11.6 °C 1021.2 hPa Calm     82% 0 mm WeatherDisplay:10.37 W/m2 CLR
00:30 14.9 °C 11.5 °C 1021.2 hPa Calm   1.6 km/h 80% 0 mm WeatherDisplay:10.37 W/m2 CLR
00:40 15.3 °C 11.8 °C 1021.2 hPa Calm     80% 0 mm WeatherDisplay:10.37 W/m2 CLR
00:45 15 °C 11.9 °C 1021.2 hPa Calm     82% 0 mm WeatherDisplay:10.37 W/m2 CLR
00:50 14.8 °C 11.7 °C 1021.2 hPa Calm     82% 0 mm WeatherDisplay:10.37 W/m2 CLR
00:55 14.7 °C 11.9 °C 1021.2 hPa Calm     83% 0 mm WeatherDisplay:10.37 W/m2 CLR
01:00 14.6 °C 11.7 °C 1021.2 hPa Calm     83% 0 mm WeatherDisplay:10.37 W/m2 CLR
01:10 14.4 °C 11.8 °C 1021.2 hPa Calm     84% 0 mm WeatherDisplay:10.37 W/m2 CLR
01:15 14.3 °C 11.7 °C 1021.2 hPa Calm     84% 0 mm WeatherDisplay:10.37 W/m2 CLR
01:20 14.3 °C 11.6 °C 1021.2 hPa Calm   1.6 km/h 84% 0 mm WeatherDisplay:10.37 W/m2 CLR
01:25 14.2 °C 11.7 °C 1021.2 hPa Calm     85% 0 mm WeatherDisplay:10.37 W/m2 CLR
01:30 14 °C 11.5 °C 1021.2 hPa Calm     85% 0 mm WeatherDisplay:10.37 W/m2 CLR
01:35 13.9 °C 11.4 °C 1021.2 hPa Calm     85% 0 mm WeatherDisplay:10.37 W/m2 CLR
01:40 13.8 °C 11.5 °C 1021.2 hPa Calm     86% 0 mm WeatherDisplay:10.37 W/m2 CLR
01:45 13.7 °C 11.4 °C 1021.6 hPa Calm     86% 0 mm WeatherDisplay:10.37 W/m2 CLR
01:50 13.6 °C 11.3 °C 1021.6 hPa Calm     86% 0 mm WeatherDisplay:10.37 W/m2 CLR
01:55 13.6 °C 11.3 °C 1021.6 hPa Calm     86% 0 mm WeatherDisplay:10.37 W/m2 CLR
02:00 13.5 °C 11.2 °C 1021.6 hPa Calm     86% 0 mm WeatherDisplay:10.37 W/m2 CLR
02:05 13.3 °C 11.1 °C 1021.6 hPa Calm     86% 0 mm WeatherDisplay:10.37 W/m2 CLR
02:10 13.2 °C 10.9 °C 1021.6 hPa Calm     86% 0 mm WeatherDisplay:10.37 W/m2 CLR
02:15 13.1 °C 11 °C 1021.6 hPa Calm     87% 0 mm WeatherDisplay:10.37 W/m2 CLR
02:20 13.1 °C 10.9 °C 1021.6 hPa Calm     87% 0 mm WeatherDisplay:10.37 W/m2 CLR
02:25 13 °C 10.9 °C 1021.6 hPa Calm     87% 0 mm WeatherDisplay:10.37 W/m2 CLR
02:30 12.9 °C 11.1 °C 1021.2 hPa Calm     88% 0 mm WeatherDisplay:10.37 W/m2 CLR
02:40 12.9 °C 10.9 °C 1021.2 hPa Calm     88% 0 mm WeatherDisplay:10.37 W/m2 CLR
02:45 12.8 °C 10.8 °C 1021.6 hPa Calm     88% 0 mm WeatherDisplay:10.37 W/m2 CLR
02:50 12.7 °C 10.8 °C 1021.6 hPa Calm     88% 0 mm WeatherDisplay:10.37 W/m2 CLR
02:55 12.7 °C 10.7 °C 1021.2 hPa Calm     88% 0 mm WeatherDisplay:10.37 W/m2 CLR
03:00 12.7 °C 10.9 °C 1021.2 hPa Calm     89% 0 mm WeatherDisplay:10.37 W/m2 CLR
03:10 12.6 °C 10.8 °C 1021.6 hPa Calm     89% 0 mm WeatherDisplay:10.37 W/m2 CLR
03:15 12.5 °C 10.7 °C 1021.6 hPa Calm     89% 0 mm WeatherDisplay:10.37 W/m2 CLR
03:20 12.4 °C 10.6 °C 1021.2 hPa Calm     89% 0 mm WeatherDisplay:10.37 W/m2 CLR
03:25 12.4 °C 10.6 °C 1021.2 hPa Calm     89% 0 mm WeatherDisplay:10.37 W/m2 CLR
03:30 12.3 °C 10.6 °C 1021.2 hPa Calm     89% 0 mm WeatherDisplay:10.37 W/m2 CLR
03:35 12.3 °C 10.5 °C 1021.2 hPa Calm     89% 0 mm WeatherDisplay:10.37 W/m2 CLR
03:40 12.3 °C 10.7 °C 1021.2 hPa Calm     90% 0 mm WeatherDisplay:10.37 W/m2 CLR
03:45 12.2 °C 10.6 °C 1021.2 hPa Calm     90% 0 mm WeatherDisplay:10.37 W/m2 CLR
03:50 12.2 °C 10.6 °C 1021.2 hPa Calm     90% 0 mm WeatherDisplay:10.37 W/m2 CLR
03:55 12.1 °C 10.5 °C 1021.2 hPa Calm     90% 0 mm WeatherDisplay:10.37 W/m2 CLR
04:00 12.1 °C 10.4 °C 1021.2 hPa Calm     90% 0 mm WeatherDisplay:10.37 W/m2 CLR
04:10 12 °C 10.4 °C 1021.2 hPa Calm     90% 0 mm WeatherDisplay:10.37 W/m2 CLR
04:20 11.9 °C 10.3 °C 1021.2 hPa Calm     90% 0 mm WeatherDisplay:10.37 W/m2 CLR
04:25 11.9 °C 10.3 °C 1021.2 hPa Calm     90% 0 mm WeatherDisplay:10.37 W/m2 CLR
04:30 11.8 °C 10.2 °C 1021.2 hPa Calm     90% 0 mm WeatherDisplay:10.37 W/m2 CLR
04:35 11.8 °C 10.2 °C 1021.2 hPa Calm     90% 0 mm WeatherDisplay:10.37 W/m2 CLR
04:40 11.8 °C 10.4 °C 1021.2 hPa Calm     91% 0 mm WeatherDisplay:10.37 W/m2 CLR
04:45 11.8 °C 10.4 °C 1021.2 hPa Calm     91% 0 mm WeatherDisplay:10.37 W/m2 CLR
04:50 11.8 °C 10.4 °C 1021.2 hPa Calm     91% 0 mm WeatherDisplay:10.37 W/m2 CLR
04:55 11.8 °C 10.4 °C 1021.2 hPa Calm     91% 0 mm WeatherDisplay:10.37 W/m2 CLR
05:00 11.8 °C 10.3 °C 1021.2 hPa Calm     91% 0 mm WeatherDisplay:10.37 W/m2 CLR
05:05 11.8 °C 10.4 °C 1021.6 hPa Calm     91% 0 mm WeatherDisplay:10.37 W/m2 CLR
05:10 11.8 °C 10.4 °C 1021.6 hPa Calm     91% 0 mm WeatherDisplay:10.37 W/m2 CLR
05:15 11.8 °C 10.4 °C 1021.6 hPa Calm     91% 0 mm WeatherDisplay:10.37 W/m2 CLR
05:20 11.8 °C 10.3 °C 1021.6 hPa Calm     91% 0 mm WeatherDisplay:10.37 W/m2 CLR
05:25 11.8 °C 10.3 °C 1021.6 hPa Calm     91% 0 mm WeatherDisplay:10.37 W/m2 CLR
05:30 11.7 °C 10.3 °C 1021.6 hPa Calm     91% 0 mm WeatherDisplay:10.37 W/m2 CLR
05:35 11.7 °C 10.2 °C 1021.6 hPa Calm     91% 0 mm WeatherDisplay:10.37 W/m2 CLR
05:40 11.6 °C 10.2 °C 1021.6 hPa Calm     91% 0 mm WeatherDisplay:10.37 W/m2 CLR
05:45 11.6 °C 10.2 °C 1021.6 hPa Calm     91% 0 mm WeatherDisplay:10.37 W/m2 CLR
05:50 11.6 °C 10.1 °C 1021.6 hPa Calm     91% 0 mm WeatherDisplay:10.37 W/m2 CLR
05:55 11.5 °C 10.1 °C 1021.6 hPa Calm     91% 0 mm WeatherDisplay:10.37 W/m2 CLR
06:00 11.4 °C 10.1 °C 1021.6 hPa Calm     91% 0 mm WeatherDisplay:10.37 W/m2 CLR
06:05 11.4 °C 10.1 °C 1021.6 hPa Calm     91% 0 mm WeatherDisplay:10.37 W/m2 CLR
06:10 11.4 °C 10 °C 1021.6 hPa Calm     91% 0 mm WeatherDisplay:10.37 W/m2 CLR
06:15 11.4 °C 10 °C 1021.6 hPa Calm     91% 0 mm WeatherDisplay:10.37 W/m2 CLR
06:20 11.4 °C 9.9 °C 1021.6 hPa Calm     91% 0 mm WeatherDisplay:10.37 W/m2 CLR
06:25 11.3 °C 9.9 °C 1021.6 hPa Calm     91% 0 mm WeatherDisplay:10.37 W/m2 CLR
06:30 11.2 °C 9.8 °C 1021.9 hPa Calm     91% 0 mm WeatherDisplay:10.37 W/m2 CLR
06:35 11.2 °C 9.8 °C 1021.9 hPa Calm     91% 0 mm WeatherDisplay:10.37 W/m2 CLR
06:40 11.2 °C 9.8 °C 1021.9 hPa Calm     91% 0 mm WeatherDisplay:10.37 W/m2 CLR
06:45 11.2 °C 9.9 °C 1021.9 hPa Calm     92% 0 mm WeatherDisplay:10.37 W/m2 CLR
06:50 11.2 °C 9.9 °C 1021.9 hPa Calm     92% 0 mm WeatherDisplay:10.37 W/m2 CLR
06:55 11.2 °C 10 °C 1021.9 hPa Calm     92% 0 mm WeatherDisplay:10.37 W/m2 CLR
07:00 11.3 °C 10 °C 1022.2 hPa Calm     92% 0 mm WeatherDisplay:10.37 W/m2 CLR
07:05 11.2 °C 9.9 °C 1022.2 hPa Calm     92% 0 mm WeatherDisplay:10.37 W/m2 CLR
07:10 11.3 °C 10 °C 1022.2 hPa Calm     92% 0 mm WeatherDisplay:10.37 W/m2 CLR
07:15 11.3 °C 10 °C 1022.2 hPa Calm     92% 0 mm WeatherDisplay:10.37 W/m2 CLR
07:20 11.3 °C 10 °C 1022.2 hPa Calm     92% 0 mm WeatherDisplay:10.37 W/m2 SCT
07:25 11.2 °C 9.9 °C 1022.2 hPa Calm     92% 0 mm WeatherDisplay:10.37 W/m2 SCT
07:30 11.2 °C 9.9 °C 1022.2 hPa Calm     92% 0 mm WeatherDisplay:10.37 W/m2 SCT
07:35 11.2 °C 9.9 °C 1022.2 hPa Calm     92% 0 mm WeatherDisplay:10.37 W/m2 SCT
07:40 11.2 °C 9.9 °C 1022.2 hPa Calm   1.6 km/h 92% 0 mm WeatherDisplay:10.37 W/m2 SCT
07:45 11.2 °C 10 °C 1022.6 hPa Calm     92% 0 mm WeatherDisplay:10.37 W/m2 SCT
07:50 11.4 °C 10.2 °C 1022.6 hPa Calm     92% 0 mm WeatherDisplay:10.37 W/m2 SCT
07:55 11.5 °C 10.3 °C 1022.6 hPa Calm     92% 0 mm WeatherDisplay:10.37 W/m2 SCT
08:00 11.7 °C 10.4 °C 1022.6 hPa Calm     92% 0 mm WeatherDisplay:10.37 W/m2 SCT
08:05 11.9 °C 10.6 °C 1022.6 hPa Calm     92% 0 mm WeatherDisplay:10.37 W/m2 SCT
08:10 12.2 °C 10.9 °C 1022.9 hPa Calm     92% 0 mm WeatherDisplay:10.37 W/m2 SCT
08:15 12.3 °C 11 °C 1022.9 hPa Calm     92% 0 mm WeatherDisplay:10.37 W/m2 SCT
08:20 12.5 °C 11.2 °C 1022.9 hPa Calm     92% 0 mm WeatherDisplay:10.37 W/m2 FEW
08:25 12.7 °C 11.4 °C 1022.9 hPa Calm     92% 0 mm WeatherDisplay:10.37 W/m2 FEW
08:30 12.9 °C 11.5 °C 1022.9 hPa Calm     91% 0 mm WeatherDisplay:10.37 W/m2 FEW
08:35 13.2 °C 11.6 °C 1022.6 hPa Calm     90% 0 mm WeatherDisplay:10.37 W/m2 FEW
08:40 13.3 °C 11.7 °C 1022.6 hPa Calm     90% 0 mm WeatherDisplay:10.37 W/m2 FEW
08:45 13.5 °C 11.7 °C 1022.6 hPa Calm     89% 0 mm WeatherDisplay:10.37 W/m2 FEW
08:50 13.7 °C 11.7 °C 1022.9 hPa Calm     88% 0 mm WeatherDisplay:10.37 W/m2 FEW
08:55 13.9 °C 11.9 °C 1022.9 hPa Calm     88% 0 mm WeatherDisplay:10.37 W/m2 FEW
09:00 14.1 °C 12.1 °C 1022.6 hPa Calm     88% 0 mm WeatherDisplay:10.37 W/m2 FEW
09:05 14.2 °C 11.9 °C 1022.9 hPa Calm     86% 0 mm WeatherDisplay:10.37 W/m2 FEW
09:10 14.4 °C 11.9 °C 1022.9 hPa Calm     85% 0 mm WeatherDisplay:10.37 W/m2 FEW
09:15 14.7 °C 12.1 °C 1022.6 hPa Calm   1.6 km/h 84% 0 mm WeatherDisplay:10.37 W/m2 FEW
09:20 15 °C 12.3 °C 1022.9 hPa Calm   1.6 km/h 84% 0 mm WeatherDisplay:10.37 W/m2 FEW
09:25 15.2 °C 12.2 °C 1022.9 hPa Calm   1.6 km/h 82% 0 mm WeatherDisplay:10.37 W/m2 FEW
09:30 15.5 °C 12.4 °C 1022.9 hPa Calm   1.6 km/h 82% 0 mm WeatherDisplay:10.37 W/m2 FEW
09:35 15.7 °C 12.5 °C 1022.9 hPa Calm   3.2 km/h 81% 0 mm WeatherDisplay:10.37 W/m2 FEW
09:40 16 °C 12.3 °C 1022.9 hPa Calm     79% 0 mm WeatherDisplay:10.37 W/m2 FEW
09:45 16.3 °C 12.4 °C 1022.9 hPa Calm   1.6 km/h 78% 0 mm WeatherDisplay:10.37 W/m2 FEW
09:50 16.6 °C 12.5 °C 1022.9 hPa Calm   1.6 km/h 77% 0 mm WeatherDisplay:10.37 W/m2 FEW
09:55 16.8 °C 12.5 °C 1022.9 hPa Calm   1.6 km/h 76% 0 mm WeatherDisplay:10.37 W/m2 FEW
10:00 17 °C 12.5 °C 1022.9 hPa Calm   1.6 km/h 75% 0 mm WeatherDisplay:10.37 W/m2 FEW
10:05 17.2 °C 12.7 °C 1022.9 hPa Calm   1.6 km/h 75% 0 mm WeatherDisplay:10.37 W/m2 FEW
10:10 17.4 °C 12.7 °C 1022.9 hPa Calm   1.6 km/h 74% 0 mm WeatherDisplay:10.37 W/m2 FEW
10:15 17.6 °C 13.1 °C 1022.9 hPa Calm   1.6 km/h 75% 0 mm WeatherDisplay:10.37 W/m2 FEW
10:20 17.9 °C 13.2 °C 1022.9 hPa Calm   1.6 km/h 74% 0 mm WeatherDisplay:10.37 W/m2 FEW
10:25 18.1 °C 13 °C 1022.9 hPa Calm   1.6 km/h 72% 0 mm WeatherDisplay:10.37 W/m2 FEW
10:30 18.3 °C 13.2 °C 1022.9 hPa Calm   1.6 km/h 72% 0 mm WeatherDisplay:10.37 W/m2 FEW
10:35 18.6 °C 13.4 °C 1022.9 hPa Calm   1.6 km/h 72% 0 mm WeatherDisplay:10.37 W/m2 FEW
10:40 18.9 °C 13.6 °C 1022.9 hPa Calm   1.6 km/h 71% 0 mm WeatherDisplay:10.37 W/m2 FEW
10:45 19.2 °C 13.4 °C 1022.9 hPa Calm     69% 0 mm WeatherDisplay:10.37 W/m2 FEW
10:50 19.5 °C 13.9 °C 1022.9 hPa Calm     70% 0 mm WeatherDisplay:10.37 W/m2 FEW
10:55 19.8 °C 13.2 °C 1022.9 hPa Calm     66% 0 mm WeatherDisplay:10.37 W/m2 FEW
11:00 20.1 °C 14.2 °C 1022.9 hPa Calm     69% 0 mm WeatherDisplay:10.37 W/m2 FEW
11:10 20.6 °C 14 °C 1022.9 hPa Calm     66% 0 mm WeatherDisplay:10.37 W/m2 FEW
11:20 21.3 °C 13.7 °C 1022.9 hPa Calm     62% 0 mm WeatherDisplay:10.37 W/m2 FEW
11:25 21.5 °C 13.7 °C 1022.9 hPa Calm   1.6 km/h 61% 0 mm WeatherDisplay:10.37 W/m2 FEW
11:30 21.6 °C 13.8 °C 1022.9 hPa Calm     61% 0 mm WeatherDisplay:10.37 W/m2 FEW
11:35 21.7 °C 13.3 °C 1022.9 hPa NW 1.6 km/h 3.2 km/h 59% 0 mm WeatherDisplay:10.37 W/m2 FEW
11:40 21.8 °C 13.1 °C 1022.9 hPa Calm   1.6 km/h 58% 0 mm WeatherDisplay:10.37 W/m2 FEW
11:45 22.1 °C 13.7 °C 1022.9 hPa Calm   1.6 km/h 59% 0 mm WeatherDisplay:10.37 W/m2 FEW
11:50 22.4 °C 13.7 °C 1022.9 hPa Calm   1.6 km/h 58% 0 mm WeatherDisplay:10.37 W/m2 FEW
11:55 22.4 °C 12.6 °C 1022.9 hPa Calm   4.8 km/h 54% 0 mm WeatherDisplay:10.37 W/m2 FEW
12:00 22.5 °C 13 °C 1022.9 hPa Calm   1.6 km/h 55% 0 mm WeatherDisplay:10.37 W/m2 FEW
12:05 22.9 °C 13.1 °C 1022.9 hPa Calm   1.6 km/h 54% 0 mm WeatherDisplay:10.37 W/m2 FEW
12:10 23.3 °C 12.3 °C 1022.9 hPa West 1.6 km/h 3.2 km/h 50% 0 mm WeatherDisplay:10.37 W/m2 FEW
12:15 23.7 °C 13.5 °C 1022.9 hPa North 1.6 km/h 3.2 km/h 53% 0 mm WeatherDisplay:10.37 W/m2 FEW
12:20 23.8 °C 12.2 °C 1022.9 hPa Calm   1.6 km/h 48% 0 mm WeatherDisplay:10.37 W/m2 FEW
12:25 24.3 °C 13.3 °C 1022.9 hPa NW 1.6 km/h 3.2 km/h 50% 0 mm WeatherDisplay:10.37 W/m2 FEW
12:30 24.6 °C 11.5 °C 1022.9 hPa West 1.6 km/h 4.8 km/h 44% 0 mm WeatherDisplay:10.37 W/m2 FEW
12:40 24.6 °C 12.2 °C 1022.6 hPa Calm   3.2 km/h 46% 0 mm WeatherDisplay:10.37 W/m2 FEW
12:45 25 °C 12.6 °C 1022.6 hPa Calm     46% 0 mm WeatherDisplay:10.37 W/m2 FEW
12:50 25.2 °C 11.3 °C 1022.6 hPa NW 1.6 km/h 3.2 km/h 42% 0 mm WeatherDisplay:10.37 W/m2 FEW
12:55 24.8 °C 11.7 °C 1022.6 hPa Calm   3.2 km/h 44% 0 mm WeatherDisplay:10.37 W/m2 FEW
13:00 25.1 °C 11.6 °C 1022.6 hPa Calm   3.2 km/h 43% 0 mm WeatherDisplay:10.37 W/m2 FEW
13:05 24.8 °C 11.4 °C 1022.6 hPa East 1.6 km/h 3.2 km/h 43% 0 mm WeatherDisplay:10.37 W/m2 FEW
13:10 24.7 °C 11.3 °C 1022.6 hPa Calm   4.8 km/h 43% 0 mm WeatherDisplay:10.37 W/m2 FEW
13:15 25.3 °C 11.8 °C 1022.6 hPa Calm   1.6 km/h 43% 0 mm WeatherDisplay:10.37 W/m2 FEW
13:20 25.1 °C 11.3 °C 1022.6 hPa Calm   3.2 km/h 42% 0 mm WeatherDisplay:10.37 W/m2 FEW
13:25 25.3 °C 11.1 °C 1022.6 hPa WNW 1.6 km/h 3.2 km/h 41% 0 mm WeatherDisplay:10.37 W/m2 FEW
13:30 25.3 °C 11.1 °C 1022.6 hPa Calm   3.2 km/h 41% 0 mm WeatherDisplay:10.37 W/m2 FEW
13:40 25.8 °C 12.6 °C 1022.6 hPa NNW 1.6 km/h 3.2 km/h 44% 0 mm WeatherDisplay:10.37 W/m2 FEW
13:45 25.9 °C 12.1 °C 1022.6 hPa North 1.6 km/h 3.2 km/h 42% 0 mm WeatherDisplay:10.37 W/m2 FEW
13:50 26 °C 13.2 °C 1022.2 hPa Calm   3.2 km/h 45% 0 mm WeatherDisplay:10.37 W/m2 FEW
13:55 26.2 °C 13.7 °C 1022.2 hPa Calm   1.6 km/h 46% 0 mm WeatherDisplay:10.37 W/m2 FEW
14:00 26.3 °C 13.1 °C 1022.2 hPa Calm   1.6 km/h 44% 0 mm WeatherDisplay:10.37 W/m2 FEW
14:05 26.6 °C 12.2 °C 1022.2 hPa Calm   1.6 km/h 41% 0 mm WeatherDisplay:10.37 W/m2 FEW
14:15 26.8 °C 13.6 °C 1022.2 hPa Calm   1.6 km/h 44% 0 mm WeatherDisplay:10.37 W/m2 FEW
14:20 26.8 °C 12.1 °C 1021.9 hPa Calm   1.6 km/h 40% 0 mm WeatherDisplay:10.37 W/m2 FEW
14:25 26.6 °C 12.3 °C 1022.2 hPa Calm     41% 0 mm WeatherDisplay:10.37 W/m2 FEW
14:30 26.5 °C 12.6 °C 1021.9 hPa Calm   1.6 km/h 42% 0 mm WeatherDisplay:10.37 W/m2 FEW
14:40 26 °C 13.2 °C 1021.9 hPa NNE 1.6 km/h 3.2 km/h 45% 0 mm WeatherDisplay:10.37 W/m2 FEW
14:45 25.8 °C 11.9 °C 1021.9 hPa Calm   1.6 km/h 42% 0 mm WeatherDisplay:10.37 W/m2 FEW
14:50 25.6 °C 11.7 °C 1021.9 hPa Calm   3.2 km/h 42% 0 mm WeatherDisplay:10.37 W/m2 FEW
14:55 25.2 °C 11.4 °C 1021.6 hPa Calm   3.2 km/h 42% 0 mm WeatherDisplay:10.37 W/m2 FEW
15:00 25.2 °C 12.1 °C 1021.6 hPa Calm   3.2 km/h 44% 0 mm WeatherDisplay:10.37 W/m2 FEW
15:05 25 °C 12.2 °C 1021.6 hPa Calm   1.6 km/h 45% 0 mm WeatherDisplay:10.37 W/m2 FEW
15:10 24.9 °C 11.8 °C 1021.6 hPa Calm   1.6 km/h 44% 0 mm WeatherDisplay:10.37 W/m2 FEW
15:15 24.9 °C 12.5 °C 1021.2 hPa Calm   1.6 km/h 46% 0 mm WeatherDisplay:10.37 W/m2 FEW
15:20 24.9 °C 11.8 °C 1021.6 hPa Calm   1.6 km/h 44% 0 mm WeatherDisplay:10.37 W/m2 FEW
15:25 24.8 °C 11.8 °C 1021.2 hPa Calm   1.6 km/h 44% 0 mm WeatherDisplay:10.37 W/m2 FEW
15:30 24.8 °C 11.7 °C 1021.2 hPa Calm     44% 0 mm WeatherDisplay:10.37 W/m2 FEW
15:35 24.7 °C 11.3 °C 1021.2 hPa Calm   1.6 km/h 43% 0 mm WeatherDisplay:10.37 W/m2 FEW
15:40 24.7 °C 11.9 °C 1021.2 hPa Calm   1.6 km/h 45% 0 mm WeatherDisplay:10.37 W/m2 FEW
15:45 24.6 °C 12.2 °C 1021.2 hPa Calm   1.6 km/h 46% 0 mm WeatherDisplay:10.37 W/m2 FEW
15:50 24.6 °C 12.2 °C 1021.2 hPa Calm   1.6 km/h 46% 0 mm WeatherDisplay:10.37 W/m2 FEW
15:55 24.6 °C 11.8 °C 1021.2 hPa Calm   1.6 km/h 45% 0 mm WeatherDisplay:10.37 W/m2 FEW
16:00 24.5 °C 11.8 °C 1021.2 hPa Calm   1.6 km/h 45% 0 mm WeatherDisplay:10.37 W/m2 FEW
16:10 24.6 °C 12.5 °C 1020.9 hPa Calm   1.6 km/h 47% 0 mm WeatherDisplay:10.37 W/m2 FEW
16:15 24.6 °C 11.9 °C 1020.9 hPa Calm   1.6 km/h 45% 0 mm WeatherDisplay:10.37 W/m2 FEW
16:20 24.6 °C 11.8 °C 1020.9 hPa Calm   1.6 km/h 45% 0 mm WeatherDisplay:10.37 W/m2 FEW
16:25 24.6 °C 13.2 °C 1020.9 hPa Calm     49% 0 mm WeatherDisplay:10.37 W/m2 FEW
16:30 24.6 °C 12.2 °C 1020.5 hPa Calm     46% 0 mm WeatherDisplay:10.37 W/m2 FEW
16:35 24.7 °C 12.3 °C 1020.5 hPa NNW 1.6 km/h 3.2 km/h 46% 0 mm WeatherDisplay:10.37 W/m2 FEW
16:40 24.6 °C 12.6 °C 1020.5 hPa Calm   1.6 km/h 47% 0 mm WeatherDisplay:10.37 W/m2 FEW
16:45 24.6 °C 12.9 °C 1020.5 hPa Calm   1.6 km/h 48% 0 mm WeatherDisplay:10.37 W/m2 FEW
16:50 24.6 °C 12.8 °C 1020.5 hPa Calm   1.6 km/h 48% 0 mm WeatherDisplay:10.37 W/m2 FEW
16:55 24.5 °C 12.8 °C 1020.5 hPa West 1.6 km/h 3.2 km/h 48% 0 mm WeatherDisplay:10.37 W/m2 FEW
17:00 24.5 °C 13.1 °C 1020.5 hPa Calm   1.6 km/h 49% 0 mm WeatherDisplay:10.37 W/m2 FEW
17:10 24.3 °C 12.9 °C 1020.5 hPa Calm   1.6 km/h 49% 0 mm WeatherDisplay:10.37 W/m2 FEW
17:15 24.3 °C 13.5 °C 1020.5 hPa Calm   1.6 km/h 51% 0 mm WeatherDisplay:10.37 W/m2 FEW
17:20 24.3 °C 12.6 °C 1020.5 hPa Calm   1.6 km/h 48% 0 mm WeatherDisplay:10.37 W/m2 FEW
17:25 24.2 °C 12.4 °C 1020.5 hPa Calm     48% 0 mm WeatherDisplay:10.37 W/m2 FEW
17:30 24.2 °C 13.1 °C 1020.5 hPa Calm     50% 0 mm WeatherDisplay:10.37 W/m2 FEW
17:35 24.1 °C 12.7 °C 1020.5 hPa Calm   1.6 km/h 49% 0 mm WeatherDisplay:10.37 W/m2 FEW
17:40 24.1 °C 13 °C 1020.5 hPa Calm     50% 0 mm WeatherDisplay:10.37 W/m2 FEW
17:45 24 °C 13.2 °C 1020.5 hPa Calm     51% 0 mm WeatherDisplay:10.37 W/m2 FEW
17:50 23.9 °C 13.8 °C 1020.5 hPa Calm   1.6 km/h 53% 0 mm WeatherDisplay:10.37 W/m2 FEW
17:55 23.9 °C 13.7 °C 1020.5 hPa Calm   1.6 km/h 53% 0 mm WeatherDisplay:10.37 W/m2 FEW
18:00 23.8 °C 13.3 °C 1020.5 hPa Calm   1.6 km/h 52% 0 mm WeatherDisplay:10.37 W/m2 FEW
18:05 23.7 °C 12.7 °C 1020.5 hPa Calm   1.6 km/h 50% 0 mm WeatherDisplay:10.37 W/m2 FEW
18:10 23.7 °C 12.9 °C 1020.5 hPa Calm     51% 0 mm WeatherDisplay:10.37 W/m2 FEW
18:20 23.5 °C 13.4 °C 1020.5 hPa Calm     53% 0 mm WeatherDisplay:10.37 W/m2 FEW
18:25 23.4 °C 13.3 °C 1020.9 hPa Calm     53% 0 mm WeatherDisplay:10.37 W/m2 FEW
18:30 23.3 °C 13.2 °C 1020.9 hPa Calm     53% 0 mm WeatherDisplay:10.37 W/m2 FEW
18:35 23.1 °C 14.1 °C 1020.5 hPa Calm     57% 0 mm WeatherDisplay:10.37 W/m2 FEW
18:40 22.8 °C 14.1 °C 1020.5 hPa Calm     58% 0 mm WeatherDisplay:10.37 W/m2 FEW
18:45 22.7 °C 14 °C 1020.5 hPa Calm     58% 0 mm WeatherDisplay:10.37 W/m2 FEW
18:50 22.5 °C 13.8 °C 1020.5 hPa Calm     58% 0 mm WeatherDisplay:10.37 W/m2 FEW
19:00 22.2 °C 14.1 °C 1020.5 hPa Calm     60% 0 mm WeatherDisplay:10.37 W/m2 FEW
19:05 22.1 °C 13.9 °C 1020.5 hPa Calm     60% 0 mm WeatherDisplay:10.37 W/m2 FEW
19:10 21.9 °C 14.1 °C 1020.9 hPa Calm     61% 0 mm WeatherDisplay:10.37 W/m2 FEW
19:15 21.8 °C 13.7 °C 1020.9 hPa Calm     60% 0 mm WeatherDisplay:10.37 W/m2 FEW
19:20 21.8 °C 14.2 °C 1020.5 hPa Calm     62% 0 mm WeatherDisplay:10.37 W/m2 FEW
19:25 21.6 °C 14 °C 1020.5 hPa Calm     62% 0 mm WeatherDisplay:10.37 W/m2 FEW
19:30 21.4 °C 14.1 °C 1020.5 hPa Calm     63% 0 mm WeatherDisplay:10.37 W/m2 FEW
19:35 21.3 °C 14 °C 1020.9 hPa Calm     63% 0 mm WeatherDisplay:10.37 W/m2 FEW
19:40 21.2 °C 13.9 °C 1020.9 hPa Calm     63% 0 mm WeatherDisplay:10.37 W/m2 FEW
19:45 21.1 °C 14 °C 1020.5 hPa Calm     64% 0 mm WeatherDisplay:10.37 W/m2 FEW
19:50 20.9 °C 14.1 °C 1020.5 hPa Calm     65% 0 mm WeatherDisplay:10.37 W/m2 FEW
19:55 20.8 °C 13.9 °C 1020.5 hPa Calm     65% 0 mm WeatherDisplay:10.37 W/m2 FEW
20:00 20.6 °C 14.1 °C 1020.5 hPa Calm     66% 0 mm WeatherDisplay:10.37 W/m2 FEW
20:10 20.3 °C 13.8 °C 1020.9 hPa Calm     66% 0 mm WeatherDisplay:10.37 W/m2 FEW
20:15 20.2 °C 13.9 °C 1020.9 hPa Calm     67% 0 mm WeatherDisplay:10.37 W/m2 FEW
20:20 20.1 °C 13.8 °C 1020.9 hPa Calm     67% 0 mm WeatherDisplay:10.37 W/m2 FEW
20:25 19.9 °C 14.1 °C 1020.9 hPa Calm     69% 0 mm WeatherDisplay:10.37 W/m2 FEW
20:30 19.8 °C 13.9 °C 1020.9 hPa Calm     69% 0 mm WeatherDisplay:10.37 W/m2 FEW
20:35 19.7 °C 14.1 °C 1020.9 hPa Calm     70% 0 mm WeatherDisplay:10.37 W/m2 FEW
20:40 19.6 °C 13.7 °C 1020.9 hPa Calm     69% 0 mm WeatherDisplay:10.37 W/m2 FEW
20:45 19.5 °C 13.9 °C 1021.2 hPa Calm     70% 0 mm WeatherDisplay:10.37 W/m2 FEW
20:50 19.4 °C 14 °C 1021.2 hPa Calm     71% 0 mm WeatherDisplay:10.37 W/m2 FEW
20:55 19.3 °C 13.9 °C 1021.2 hPa Calm     71% 0 mm WeatherDisplay:10.37 W/m2 FEW
21:00 19.2 °C 13.8 °C 1021.2 hPa Calm     71% 0 mm WeatherDisplay:10.37 W/m2 FEW
21:10 19 °C 14.3 °C 1021.6 hPa Calm     74% 0 mm WeatherDisplay:10.37 W/m2 FEW
21:15 18.9 °C 13.9 °C 1021.6 hPa Calm     73% 0 mm WeatherDisplay:10.37 W/m2 FEW
21:20 18.8 °C 14.1 °C 1021.6 hPa Calm     74% 0 mm WeatherDisplay:10.37 W/m2 CLR
21:25 18.7 °C 13.9 °C 1021.6 hPa Calm     74% 0 mm WeatherDisplay:10.37 W/m2 CLR
21:30 18.6 °C 14.1 °C 1021.6 hPa Calm     75% 0 mm WeatherDisplay:10.37 W/m2 CLR
21:40 18.4 °C 14.1 °C 1021.6 hPa Calm     76% 0 mm WeatherDisplay:10.37 W/m2 CLR
21:45 18.3 °C 14 °C 1021.9 hPa Calm     76% 0 mm WeatherDisplay:10.37 W/m2 CLR
21:50 18.2 °C 14.1 °C 1021.9 hPa Calm     77% 0 mm WeatherDisplay:10.37 W/m2 CLR
21:55 18.1 °C 14.2 °C 1021.9 hPa Calm     78% 0 mm WeatherDisplay:10.37 W/m2 CLR
22:00 18 °C 14.1 °C 1021.6 hPa Calm     78% 0 mm WeatherDisplay:10.37 W/m2 CLR
22:05 17.9 °C 14.2 °C 1021.9 hPa Calm     79% 0 mm WeatherDisplay:10.37 W/m2 CLR
22:15 17.8 °C 14.2 °C 1021.9 hPa Calm     79% 0 mm WeatherDisplay:10.37 W/m2 CLR
22:20 17.7 °C 14.1 °C 1021.9 hPa Calm     79% 0 mm WeatherDisplay:10.37 W/m2 CLR
22:25 17.7 °C 14 °C 1021.9 hPa Calm     79% 0 mm WeatherDisplay:10.37 W/m2 CLR
22:30 17.6 °C 13.9 °C 1021.9 hPa Calm     79% 0 mm WeatherDisplay:10.37 W/m2 CLR
22:35 17.5 °C 14 °C 1021.9 hPa Calm     80% 0 mm WeatherDisplay:10.37 W/m2 CLR
22:40 17.4 °C 13.9 °C 1021.9 hPa Calm     80% 0 mm WeatherDisplay:10.37 W/m2 CLR
22:45 17.3 °C 13.7 °C 1021.9 hPa Calm     79% 0 mm WeatherDisplay:10.37 W/m2 CLR
22:50 17.3 °C 14.1 °C 1021.9 hPa Calm     81% 0 mm WeatherDisplay:10.37 W/m2 CLR
22:55 17.2 °C 13.9 °C 1021.9 hPa Calm     81% 0 mm WeatherDisplay:10.37 W/m2 CLR
23:00 17.2 °C 13.9 °C 1021.9 hPa Calm     81% 0 mm WeatherDisplay:10.37 W/m2 CLR
23:10 17 °C 13.9 °C 1021.9 hPa Calm   1.6 km/h 82% 0 mm WeatherDisplay:10.37 W/m2 CLR
23:20 16.9 °C 13.8 °C 1021.9 hPa Calm     82% 0 mm WeatherDisplay:10.37 W/m2 CLR
23:25 16.8 °C 13.7 °C 1021.9 hPa Calm     82% 0 mm WeatherDisplay:10.37 W/m2 CLR
23:30 16.7 °C 13.8 °C 1021.9 hPa Calm     83% 0 mm WeatherDisplay:10.37 W/m2 CLR
23:40 16.6 °C 13.7 °C 1022.2 hPa Calm     83% 0 mm WeatherDisplay:10.37 W/m2 CLR
23:45 16.5 °C 13.6 °C 1022.2 hPa Calm     83% 0 mm WeatherDisplay:10.37 W/m2 CLR
23:50 16.4 °C 13.3 °C 1022.2 hPa Calm     82% 0 mm WeatherDisplay:10.37 W/m2 CLR
23:55 16.5 °C 13.6 °C 1022.2 hPa Calm     83% 0 mm WeatherDisplay:10.37 W/m2 CLR
Piedmont Bend
Compliments of Weather Underground - 4 mb